Location: Antioch
(38.0049°N, 121.8058°W)
Time: 03:16:08
(UTC+00:00)

OAO 2 Rocket - Pass Details

Date: 11 February 2026
Orbit: 668 x 734 km, 35.0° (Epoch: 8 March)

Event Time Altitude Azimuth Distance (km) Brightness Sun altitude
Exits shadow 13:51:59 19° 254° (WSW) 1,662 4.7 -14.2°
Maximum altitude 13:54:57 34° 201° (SSW) 1,165 4.3 -13.7°
Drops below altitude 10° 13:59:38 10° 137° (SE) 2,212 6.7 -12.7°
Sets 14:02:15 0° 128° (SE) 3,137 7.8 -12.2°
